Theta_e
300 300 300 300 299 299 298 298 298 298 298 298 298 298 302 305 306 306 307 307 307 308 307 306 305 306 307 306 305 304 302 304 305 305 304 305 302 305 304 303 305 307 306 312 316
300 299 299 299 299 299 298 298 298 298 298 298 298 299 303 305 306 306 307 307 307 308 307 306 305 305 305 307 306 302 301 303 304 305 305 304 304 304 303 303 306 306 311 317 318
299 299 299 299 299 299 298 298 298 298 298 298 298 301 306 306 306 306 306 307 307 307 307 305 305 305 305 305 305 305 304 304 305 305 305 304 304 304 302 302 304 303 303 316 319
299 299 299 299 299 299 298 298 298 298 298 298 300 303 307 307 305 306 306 307 307 308 308 307 306 305 303 304 304 304 305 305 305 305 305 304 304 303 302 302 304 304 304 315 322
299 299 299 299 299 299 298 298 298 298 298 298 301 306 307 306 306 306 307 307 307 308 309 308 307 304 303 304 304 304 304 305 305 305 305 305 305 303 303 304 309 305 304 316 324
299 298 299 298 298 298 298 298 298 298 298 300 302 308 307 305 306 306 307 308 308 309 308 308 307 305 304 304 304 305 304 305 305 305 305 305 304 302 304 309 310 305 310 318 318
299 298 298 298 298 298 298 298 298 297 298 301 303 306 306 306 306 307 307 308 309 309 309 309 308 308 305 305 306 305 305 303 305 306 305 304 303 304 308 310 307 314 315 317 314
299 298 298 298 298 298 298 298 297 297 299 302 304 307 305 306 305 306 306 308 309 310 310 309 308 308 307 307 307 304 303 304 305 306 305 303 304 307 309 312 314 315 316 314 313
298 298 298 298 298 298 298 297 297 298 300 303 306 307 304 305 305 306 306 308 309 310 310 309 308 307 308 304 301 299 301 305 305 306 306 306 309 308 309 312 313 317 316 314 318
298 298 298 298 298 298 298 297 298 299 301 303 303 306 304 304 306 306 306 309 310 310 310 309 308 304 303 298 301 303 298 302 303 306 307 308 309 308 307 310 311 313 314 313 316
299 298 297 297 297 297 298 299 300 301 299 299 300 302 303 305 307 306 305 309 310 310 307 309 304 303 308 304 301 297 297 302 303 307 308 308 308 308 307 307 309 310 312 314 315
299 298 298 297 297 297 297 297 297 297 300 298 299 302 303 305 306 305 306 309 309 307 306 302 303 308 306 305 304 299 298 302 304 307 308 307 308 307 307 307 308 307 308 312 315
299 298 297 297 297 297 297 297 297 297 300 298 301 302 303 305 306 305 306 308 307 307 306 305 307 309 310 309 310 310 306 305 304 307 306 306 306 307 307 306 306 306 306 309 309
299 298 297 297 300 297 296 297 297 297 296 300 301 302 304 305 306 305 306 307 307 307 306 307 306 308 310 310 311 311 310 309 309 308 306 306 304 308 307 307 306 305 304 304 309
299 298 297 296 297 296 296 296 296 298 302 299 300 302 304 304 303 305 306 306 304 305 304 306 306 307 308 308 306 310 310 310 309 306 306 304 305 308 307 308 306 304 303 303 305
299 298 296 296 296 296 296 297 298 299 299 298 300 301 304 303 303 305 306 305 306 306 304 305 306 306 307 305 305 306 310 309 307 304 306 304 306 307 308 308 306 303 302 303 304
299 298 296 296 297 296 296 298 298 301 294 293 300 300 302 301 302 303 303 300 299 300 296 302 307 304 305 306 305 305 308 307 304 301 305 303 305 304 305 306 304 302 301 302 303
301 298 296 296 296 295 297 295 295 291 290 296 299 301 302 301 302 302 304 301 301 300 295 300 300 305 304 306 307 306 306 306 306 306 306 304 307 304 304 303 302 300 300 301 302
303 297 296 296 295 296 296 292 296 291 296 297 299 297 295 301 302 302 301 299 302 302 301 300 301 304 304 305 305 306 305 304 304 295 302 303 304 304 303 302 300 299 299 299 300
303 297 296 296 295 296 293 296 291 296 297 298 295 296 291 294 299 301 302 300 302 302 302 302 302 303 305 305 305 307 305 305 302 300 303 305 306 305 304 303 300 299 298 299 300
303 297 298 296 295 296 292 288 288 293 298 299 297 293 299 296 293 297 300 301 299 301 302 303 302 302 303 304 305 304 306 304 302 303 305 305 304 300 303 302 299 299 298 298 299
301 299 298 295 294 287 288 287 294 293 297 296 298 296 299 297 297 297 301 301 298 299 304 303 303 302 304 303 304 305 306 305 302 303 302 305 303 301 301 301 300 299 297 297 297
299 297 297 295 298 286 288 287 293 294 295 296 296 298 299 299 295 299 299 299 298 300 303 302 296 295 297 300 301 305 305 306 303 302 303 303 301 301 300 299 299 298 297 296 296
301 298 296 295 295 292 286 287 289 294 296 297 296 298 298 296 291 295 300 298 298 300 301 302 301 299 297 302 300 303 305 305 304 301 303 303 304 303 300 297 297 298 297 296 296
304 300 298 297 292 295 293 290 291 293 296 297 296 297 297 294 294 294 292 297 297 298 299 296 295 295 300 300 299 300 302 303 305 304 304 303 302 302 301 298 298 299 297 296 296
304 299 297 296 295 296 295 292 295 294 295 295 295 296 296 295 296 294 297 296 297 296 297 296 291 290 290 292 294 297 298 298 300 302 302 303 303 300 303 301 298 298 297 297 296
307 304 304 297 297 298 297 297 296 295 295 296 296 296 296 296 297 296 297 297 297 294 291 290 287 286 290 285 286 291 289 296 298 297 301 303 303 299 297 298 298 298 298 297 296
Wind_Speed
4 4 5 6 7 7 7 8 8 8 8 10 10 8 6 5 9 15 19 17 15 15 15 12 10 8 8 10 7 3 4 1 2 4 7 12 9 9 15 13 23 8 11 20 25
5 5 6 6 7 7 7 8 8 8 9 10 9 7 5 4 5 19 18 15 15 16 17 18 16 10 7 6 6 6 3 1 2 3 4 11 10 19 10 17 10 23 15 14 18
5 6 6 7 7 7 7 7 8 7 8 9 7 6 5 3 3 13 16 15 13 14 15 12 8 9 8 7 8 4 2 2 3 8 10 8 10 13 9 5 10 23 29 27 19
4 5 6 7 8 8 7 7 7 7 8 7 6 5 6 2 2 10 14 13 10 13 13 14 11 7 5 4 5 3 3 4 6 14 11 7 12 8 8 12 22 23 23 25 14
4 5 6 7 7 8 7 7 7 7 7 5 4 4 3 6 5 10 11 11 10 13 20 13 17 5 4 2 3 2 4 7 11 13 11 11 12 9 18 12 25 20 16 17 8
4 5 6 7 7 7 7 7 6 7 5 4 3 5 3 4 7 10 8 9 12 14 16 18 10 6 4 2 2 6 11 6 15 19 7 5 11 7 11 32 21 11 13 10 19
4 5 5 6 6 6 6 6 6 4 3 2 2 8 9 5 6 10 7 6 7 10 14 14 12 9 3 3 7 9 3 6 15 21 5 12 3 6 24 24 7 4 3 9 22
4 4 5 6 6 6 5 5 4 2 2 2 3 4 3 3 5 7 6 4 6 7 9 10 11 5 3 4 5 4 4 5 7 17 7 6 8 14 31 13 5 8 8 6 23
3 4 5 6 6 5 5 4 2 2 2 3 3 3 2 2 4 6 7 4 3 6 7 8 7 5 6 4 5 7 2 7 6 14 5 10 5 18 27 17 21 20 23 10 16
3 4 4 5 6 5 4 2 2 3 3 3 4 2 2 3 2 7 7 4 3 5 4 4 5 4 4 4 1 2 3 3 3 7 9 13 12 14 23 21 20 19 26 19 26
3 3 4 4 5 4 3 2 2 1 4 4 3 1 3 4 1 6 7 2 4 3 3 3 7 0 3 3 4 3 4 1 2 4 4 8 11 14 20 26 23 23 18 17 19
3 2 2 3 3 4 2 2 4 4 3 4 2 2 3 5 2 9 6 1 3 2 4 5 1 2 6 5 4 3 3 3 4 2 5 6 8 12 18 17 19 24 23 24 29
4 3 2 2 2 2 3 4 4 4 3 3 4 3 4 3 3 8 8 3 4 2 4 3 1 9 4 4 1 1 2 3 5 3 4 4 5 16 15 26 32 33 30 24 21
5 4 2 1 1 0 2 3 3 2 4 4 4 4 4 3 3 7 9 5 3 2 2 3 2 6 3 1 2 4 3 1 4 5 2 3 2 12 12 14 21 26 24 24 22
5 4 2 1 1 0 1 2 1 2 3 2 2 3 4 3 5 5 7 3 2 3 3 2 2 1 3 3 5 5 3 2 3 6 2 7 4 2 5 10 11 19 23 21 22
5 4 2 1 0 1 1 1 2 6 4 2 2 4 2 5 4 7 4 5 2 2 1 5 3 1 2 3 4 1 3 3 3 2 5 4 2 3 5 5 7 13 15 18 22
5 4 3 2 1 1 0 0 5 4 4 4 1 2 2 4 4 6 4 5 2 5 5 6 0 4 2 2 2 3 4 3 4 5 3 8 3 4 2 3 3 6 13 16 16
6 6 5 3 3 2 1 5 4 2 5 2 1 1 2 3 3 5 2 4 4 4 3 2 6 2 3 2 1 2 0 3 3 1 2 5 4 3 4 6 5 7 9 11 13
7 6 5 4 3 3 1 4 6 6 3 7 3 3 4 1 1 2 1 2 1 2 4 2 5 4 1 1 1 1 3 2 5 3 3 3 4 4 2 2 5 8 9 11 11
9 6 5 6 5 3 4 4 3 3 1 0 4 2 4 3 1 2 1 2 2 1 4 3 4 1 4 1 1 1 1 2 3 2 3 3 4 4 6 6 3 4 6 7 10
11 5 5 8 7 2 3 6 4 3 1 1 3 2 2 3 3 2 3 2 1 1 1 3 3 4 1 4 1 4 1 3 2 2 3 1 5 4 10 8 8 7 7 7 10
11 3 8 13 2 2 2 5 1 2 3 2 1 2 5 5 3 2 5 3 3 2 2 0 2 4 4 1 1 2 2 1 3 3 1 2 5 5 6 15 18 11 8 11 11
12 5 11 16 3 2 2 2 2 2 3 3 3 2 2 4 1 3 3 1 2 3 4 1 1 4 8 4 3 2 2 2 2 2 4 4 5 4 6 11 13 16 11 10 11
12 3 4 9 3 5 4 3 2 5 2 3 2 3 3 1 2 4 5 4 4 4 4 3 3 5 5 3 2 3 3 3 3 2 2 5 2 4 6 8 15 17 14 11 11
12 5 8 4 6 6 4 4 4 3 4 7 1 5 5 2 2 3 2 2 2 4 3 4 4 0 5 6 3 4 6 6 7 5 6 3 7 7 14 13 25 23 20 17 13
13 8 8 6 9 12 6 7 10 4 8 5 5 7 7 5 6 7 6 4 4 1 5 1 3 3 4 4 2 6 10 11 11 7 7 5 8 7 16 21 22 25 24 22 18
24 15 10 12 8 6 6 7 11 13 11 5 10 5 7 10 5 1 6 4 6 7 3 3 5 3 5 4 5 8 9 16 5 6 9 11 9 7 5 20 31 32 29 27 23
Wind_Direction
297 324 333 344 357 1 4 360 0 359 357 355 358 2 14 108 38 24 28 19 13 13 10 24 51 90 83 66 68 50 57 9 331 18 292 342 352 327 335 325 325 321 339 323 328
303 319 325 338 346 354 4 358 357 357 357 354 358 7 14 144 23 26 21 17 10 10 21 28 40 56 62 52 38 59 77 312 33 313 307 321 327 314 328 326 303 325 316 321 318
299 311 322 336 347 349 357 357 353 354 356 355 359 12 30 160 12 10 12 11 12 21 24 25 36 62 56 38 21 24 126 276 283 323 316 303 308 320 304 288 287 319 318 327 310
292 311 324 335 345 343 353 353 349 350 351 355 2 25 55 84 85 4 14 10 23 28 23 36 36 48 57 40 350 74 251 287 279 298 300 285 304 289 273 270 298 296 302 320 305
292 312 328 342 339 345 353 351 348 348 346 355 17 53 90 63 45 16 21 31 40 33 31 31 36 35 71 24 16 28 279 297 312 335 292 292 290 281 278 306 294 278 296 312 329
300 322 341 335 341 350 350 348 345 343 347 6 54 109 98 76 33 13 25 45 49 36 29 35 37 60 79 31 98 291 270 20 19 6 350 332 302 326 309 318 293 263 283 283 352
306 323 332 337 341 348 349 344 342 349 9 25 99 116 86 87 40 15 22 36 34 30 31 26 25 38 32 354 354 298 305 7 23 355 26 333 5 319 322 326 250 233 274 238 313
296 313 331 332 334 343 347 339 344 1 24 72 131 156 94 70 24 2 3 22 19 13 18 10 8 28 19 345 20 330 30 10 346 2 338 13 319 323 339 1 97 79 90 46 313
300 322 326 330 332 345 345 342 349 36 86 100 110 132 105 18 0 357 0 14 6 9 4 6 7 22 351 66 10 13 39 0 340 359 333 31 334 334 1 26 25 51 53 33 333
291 308 321 330 334 346 348 10 83 82 106 107 85 128 72 337 16 4 353 356 12 356 32 6 12 38 28 53 356 313 46 327 345 333 5 24 6 357 11 22 28 44 55 1 14
279 294 319 327 339 352 3 114 118 67 52 77 59 22 345 344 18 353 351 350 11 42 37 27 51 64 4 56 110 143 107 294 276 16 314 356 6 9 11 21 22 30 31 17 16
257 263 298 325 348 359 25 122 104 138 75 58 62 42 348 354 352 9 5 32 57 32 348 35 36 143 119 84 104 43 48 313 301 167 341 339 354 24 18 16 29 33 25 28 30
240 249 280 324 356 2 58 96 109 116 97 34 41 18 351 358 349 354 12 12 67 67 16 123 138 154 164 150 327 237 214 241 232 308 168 322 333 17 9 20 22 22 25 40 32
238 248 276 323 317 28 52 78 103 108 79 327 3 13 355 347 343 358 13 25 37 39 14 249 112 170 188 204 127 333 175 224 278 314 54 53 312 23 0 21 27 15 14 13 42
227 237 261 263 257 39 70 70 54 115 34 304 344 346 354 35 331 360 358 14 61 344 60 268 20 66 191 213 163 230 132 216 319 322 339 7 77 17 26 15 7 4 13 22 44
207 226 214 190 162 140 129 86 119 45 259 20 333 347 10 19 2 332 351 18 22 37 324 258 300 115 256 291 191 346 81 360 0 353 15 354 12 22 18 353 355 359 6 32 53
223 220 202 182 137 166 165 71 41 121 351 284 78 24 90 2 354 29 15 18 67 45 357 330 242 325 10 350 110 62 74 352 359 11 213 327 27 229 92 39 20 360 9 27 47
227 210 200 188 179 153 105 49 87 240 218 213 162 82 113 4 16 358 34 25 48 62 93 74 328 34 3 64 330 355 4 154 224 199 269 349 319 311 96 130 65 26 36 48 43
212 207 202 184 181 164 132 59 209 207 158 151 96 91 327 346 170 50 109 168 244 55 137 70 287 319 78 57 137 4 51 317 105 25 39 290 287 305 128 82 64 48 38 42 43
205 191 209 185 169 158 73 232 185 205 35 302 163 150 168 243 140 111 179 221 175 125 128 156 322 303 299 31 65 286 182 45 356 78 308 281 271 231 200 208 176 124 99 75 65
187 183 191 178 160 147 153 225 246 207 106 215 200 113 206 189 174 217 204 166 165 102 103 135 129 285 4 37 30 348 4 76 129 146 161 257 263 220 192 174 178 168 128 105 100
176 139 174 165 124 56 152 187 204 204 192 250 126 117 175 159 148 199 200 192 152 140 133 57 138 277 236 277 159 196 268 138 124 252 208 187 273 336 200 167 164 163 153 133 116
170 132 169 172 155 267 307 311 201 163 220 175 179 165 190 175 88 188 222 192 162 147 151 160 331 345 342 6 21 284 236 193 112 72 216 144 265 15 130 151 163 155 159 148 132
163 120 139 194 180 144 145 239 230 206 202 189 158 129 91 240 21 192 213 190 185 160 156 143 158 181 203 226 177 281 248 228 161 134 205 227 233 233 194 174 175 171 164 170 156
178 192 173 179 232 165 161 127 144 203 214 197 306 209 165 140 345 230 300 158 200 175 137 128 188 190 259 253 256 248 245 240 212 220 190 239 206 220 204 194 187 180 171 175 171
165 155 164 155 137 153 182 213 179 180 155 241 208 188 173 178 193 196 155 195 198 163 162 117 206 119 295 337 318 265 247 237 239 236 251 248 269 218 204 199 190 188 181 180 183
202 184 179 165 145 143 202 196 202 158 212 192 202 124 188 226 197 231 172 159 163 156 163 138 130 82 268 337 331 303 227 211 194 215 187 211 221 162 182 184 195 195 191 188 186